Location: ?
(35.4064°N, 139.3593°E)
Time: 20:08:50
(UTC+00:00)

H-2A R/B - Visible Passes

Search period start: 25 July 2024 00:00
Search period end: 04 August 2024 00:00
Orbit: 398 x 413 km, 97.4° (Epoch: 25 July)

Date Brightness Start Highest point End Pass type
(mag) Time Alt. Az. Time Alt. Az. Time Alt. Az.
26 Jul 4.6 19:12:22 10° NE 19:15:01 24° E 19:17:37 10° SSE visible
28 Jul 5.0 19:06:50 10° NE 19:09:15 20° E 19:11:36 10° SE visible
30 Jul 5.2 19:00:59 10° NE 19:03:01 16° E 19:05:02 10° SE visible
01 Aug 5.3 18:54:52 10° ENE 18:56:21 13° E 18:57:48 10° ESE visible
